DW0333 Tranby-Lier NO current weather conditions

sailwx.info

Wind from 040 at 0 knots

Air temperature 5.6° C
Dewpoint -0.1° C

Last reported at 2015-May-28 02:37 UTC.
Time now 2015-May-28 04:03 UTC

Location: N 59°50' E 010°17'.
View on Google Maps.

See reports from other nearby stations

  
Tides and Currents Weather Stations Pressure Air Temp Water Temp Dewpoint Dewpoint Depression Visibility Wind Speed Wind Dir Waves Ship Positions
date/time (UTC)wind fromknots sea level pressurealtimeterstation pressurevisibilityair tempwater tempwave heightnotes
2015-May-28 02:37 040 0 5.6
2015-May-28 02:22 038 5.6
2015-May-28 02:07 038 5.6
2015-May-28 01:52 038 6.1
2015-May-28 01:37 038 6.1
2015-May-28 01:22 037 6.7
2015-May-28 01:07 032 6.7
2015-May-28 00:52 038 0 6.7
2015-May-28 00:37 008 6.7
2015-May-28 00:19 303 0 6.7
2015-May-28 00:04 302 0 6.7
2015-May-27 23:49 346 0 6.7
2015-May-27 23:34 326 0 6.7
2015-May-27 23:19 334 0 6.7
2015-May-27 23:03 309 1 6.7
2015-May-27 22:48 292 1 6.7
2015-May-27 22:33 304 2 6.7
2015-May-27 22:18 292 1 7.2
2015-May-27 22:03 290 2 7.2
2015-May-27 21:47 298 1 7.8
2015-May-27 21:32 300 1 7.8
2015-May-27 21:17 298 2 8.3
2015-May-27 21:02 319 4 8.3
2015-May-27 20:47 305 2 8.9
2015-May-27 20:32 280 4 9.4
2015-May-27 20:17 287 3 10.0
2015-May-27 20:02 304 1 10.6
2015-May-27 19:46 291 2 11.1
2015-May-27 19:32 292 1 11.7
2015-May-27 19:14 249 1 11.7
2015-May-27 18:59 273 2 12.2
2015-May-27 18:44 234 3 12.8
2015-May-27 18:28 305 1 13.3
2015-May-27 18:13 227 3 13.3
2015-May-27 17:58 286 3 13.3
2015-May-27 17:43 167 3 13.9
2015-May-27 17:27 269 4 13.9
2015-May-27 17:12 244 4 13.9
2015-May-27 16:57 275 5 14.4
2015-May-27 16:42 253 5 14.4
2015-May-27 16:27 221 5 15.0
2015-May-27 16:12 243 5 15.0
2015-May-27 15:57 212 5 15.6
2015-May-27 15:41 265 5 15.0
2015-May-27 15:27 271 5 15.0
2015-May-27 15:12 298 3 14.4
2015-May-27 14:54 231 6 15.0
2015-May-27 14:39 276 6 15.0
2015-May-27 14:24 269 6 15.6
2015-May-27 14:09 279 5 15.6
2015-May-27 13:54 261 7 14.4
2015-May-27 13:38 265 6 14.4
2015-May-27 13:23 253 5 14.4
2015-May-27 13:08 236 3 12.2
2015-May-27 12:53 239 4 12.2
2015-May-27 12:37 225 6 12.2
2015-May-27 12:22 227 5 13.3
2015-May-27 12:07 268 5 14.4
2015-May-27 11:52 295 2 13.3
2015-May-27 11:37 326 3 13.3
2015-May-27 11:22 179 5 13.9
2015-May-27 11:07 303 3 12.8
2015-May-27 10:52 263 3 13.3
2015-May-27 10:37 196 2 12.2
2015-May-27 10:22 258 3 12.8
2015-May-27 10:07 168 2 13.3
2015-May-27 09:49 272 2 11.7
2015-May-27 09:34 245 4 11.1
2015-May-27 09:19 289 3 12.2
2015-May-27 09:04 259 3 12.8
2015-May-27 08:48 306 3 12.2
2015-May-27 08:33 331 2 12.2
2015-May-27 08:18 019 2 11.7
2015-May-27 08:02 315 2 10.6
2015-May-27 07:47 342 2 9.4
2015-May-27 07:17 291 8.9
2015-May-27 07:02 329 2 8.3
2015-May-27 06:47 279 2 8.3
2015-May-27 06:32 290 2 8.3
2015-May-27 06:17 267 3 7.8
2015-May-27 06:02 246 2 7.2
2015-May-27 05:47 207 2 7.2
2015-May-27 05:32 237 1 6.7
2015-May-27 05:14 304 3 6.1
2015-May-27 04:59 275 3 5.6
2015-May-27 04:44 303 1 5.6
2015-May-27 04:28 276 5.6
2015-May-27 04:13 245 0 5.6
2015-May-27 03:58 302 0 5.0
2015-May-27 03:43 290 1 5.0
2015-May-27 03:27 316 1 5.0
2015-May-27 03:12 321 1 5.6
2015-May-27 02:57 342 1 5.6
2015-May-27 02:42 311 1 5.6
2015-May-27 02:27 311 1 5.6
2015-May-27 02:12 007 2 5.6
2015-May-27 01:57 297 1 5.6
2015-May-27 01:42 340 3 5.6
2015-May-27 01:27 277 3 6.1
2015-May-27 01:12 323 3 5.6
2015-May-27 00:54 303 2 5.6
2015-May-27 00:39 326 3 5.6
2015-May-27 00:24 303 3 5.6
2015-May-27 00:09 299 2 6.1
2015-May-26 23:53 356 3 6.1
2015-May-26 23:38 333 2 6.1
2015-May-26 23:23 011 2 6.1
2015-May-26 23:07 317 3 6.1
2015-May-26 22:52 313 2 6.1
2015-May-26 22:37 325 0 6.7
2015-May-26 22:22 317 0 7.2
2015-May-26 22:07 287 1 7.2
2015-May-26 21:52 345 2 7.8
2015-May-26 21:37 281 4 7.8
2015-May-26 21:21 296 4 7.8
2015-May-26 21:06 310 4 7.8
2015-May-26 20:51 333 3 8.3
2015-May-26 20:34 286 2 8.3
2015-May-26 20:19 279 1 8.3
2015-May-26 20:04 326 3 8.9
2015-May-26 19:49 268 0 9.4
2015-May-26 19:34 178 0 9.4
2015-May-26 19:18 149 0 9.4
2015-May-26 19:03 224 1 10.0
2015-May-26 18:48 198 2 10.0
2015-May-26 18:32 155 1 10.0
2015-May-26 18:17 198 0 10.0
2015-May-26 18:02 146 2 9.4
2015-May-26 17:47 198 2 10.0
2015-May-26 17:32 227 1 10.0
2015-May-26 17:17 177 2 10.0
2015-May-26 17:02 144 3 10.6
2015-May-26 16:46 221 2 11.1
2015-May-26 16:32 156 0 11.7
2015-May-26 16:17 175 1 11.7
2015-May-26 16:02 127 2 12.2
2015-May-26 15:47 080 1 12.8
2015-May-26 15:32 129 1 13.3
2015-May-26 15:14 010 0 12.8
2015-May-26 14:59 356 0 12.2
2015-May-26 14:44 042 0 12.2
2015-May-26 14:29 038 0 12.2
2015-May-26 14:13 023 0 12.8
2015-May-26 13:58 292 0 12.8
2015-May-26 13:43 227 1 11.7
2015-May-26 13:27 089 1 11.1
2015-May-26 13:12 046 1 11.1
2015-May-26 12:57 040 0 11.7
2015-May-26 12:42 022 2 11.7
2015-May-26 12:27 269 1 10.0
2015-May-26 12:12 338 0 9.4
2015-May-26 11:57 357 0 10.6
2015-May-26 11:42 017 5 11.7
2015-May-26 11:27 268 1 13.3
2015-May-26 11:12 289 0 12.8
2015-May-26 10:57 025 1 12.8
2015-May-26 10:39 323 3 11.7
2015-May-26 10:24 279 3 11.1
2015-May-26 10:09 298 3 10.6
2015-May-26 09:53 280 3 10.6
2015-May-26 09:38 290 2 10.0
2015-May-26 09:23 283 2 9.4
2015-May-26 09:08 323 2 8.9
2015-May-26 08:52 286 1 8.3
2015-May-26 08:37 280 2 7.8
2015-May-26 08:22 286 2 7.8
2015-May-26 08:07 290 2 7.8
2015-May-26 07:52 290 0 7.2
2015-May-26 07:37 298 1 7.2
2015-May-26 07:22 297 0 6.7
2015-May-26 07:07 327 1 6.7
2015-May-26 06:52 023 1 6.7
2015-May-26 06:37 325 1 6.1
2015-May-26 06:22 279 3 6.1
2015-May-26 06:04 331 2 6.1
2015-May-26 05:49 288 0 6.1
2015-May-26 05:34 326 0 6.1
2015-May-26 05:18 293 1 5.6
2015-May-26 05:03 284 1 5.6
2015-May-26 04:48 329 5.6
2015-May-26 04:33 356 0 5.0
2015-May-26 04:18 333 0 5.0
2015-May-26 04:02 027 0 5.0